Regional Weather Roundup
Issued by NWS

Home | Current Version | Previous Version | Graphics & Text | Print | Product List | Glossary On
Versions: 1 2 3 4 5 6 7 8 9 10 11 12 13 14 15 16 17 18 19 20 21 22 23 24 25 26 27
000
ASUS45 KCYS 161110
RWRWY

WYOMING REGIONAL WEATHER ROUNDUP
NATIONAL WEATHER SERVICE CHEYENNE WY
500 AM MDT MON OCT 16 2017

NOTE:  "FAIR" INDICATES FEW OR NO CLOUDS BELOW 12,000 FEET
WITH NO SIGNIFICANT WEATHER AND/OR OBSTRUCTIONS TO VISIBILITY.

WYZ001-161200-
YELLOWSTONE NATIONAL PARK

CITY           SKY/WX    TMP DP  RH WIND       PRES   REMARKS
LK YELLOWSTONE   N/A     20  20 100 CALM      30.44R
W YELLOWSTONE  NOT AVBL

$$
WYZ002>013-054>058-071-098>099-161200-
NORTHERN WYOMING

CITY           SKY/WX    TMP DP  RH WIND       PRES   REMARKS
JACKSON        FAIR      22  20  92 N3        30.44S
CODY           FAIR      51  20  29 NW5       30.25R
GREYBULL       FAIR      30  26  85 SE5       30.22F WCI  25
WORLAND        FAIR      29  28  96 S7        30.23S WCI  22
SHERIDAN       FAIR      30  25  81 S5        30.15R WCI  25
BUFFALO        FAIR      47  16  29 W9        30.18F
GILLETTE       FAIR      48  27  44 SW12      30.15F
HULETT         FAIR      41  27  56 W7        30.16F
NEWCASTLE      FAIR      32  27  80 CALM      30.22F

$$
WYZ014>020-022>026-101>103-161200-
CENTRAL WYOMING

CITY           SKY/WX    TMP DP  RH WIND       PRES   REMARKS
BIG PINEY      FAIR      20  16  84 CALM      30.43S
PINEDALE       FAIR      19  18  93 W8        30.43F WCI   9
DUBOIS         FAIR      36  14  41 NW23G30   30.32F WCI  24
LANDER         FAIR      39  28  64 CALM      30.28S
RIVERTON       FAIR      41  29  62 W13       30.28S
CASPER         FAIR      41  17  38 W5        30.27R
DOUGLAS        FAIR      27  22  81 VRB3      30.24F

$$
WYZ021-027>030-104>119-161200-
SOUTHERN WYOMING

CITY           SKY/WX    TMP DP  RH WIND       PRES   REMARKS
EVANSTON       FAIR      34  15  46 SW7       30.43F WCI  28
KEMMERER       FAIR      32  12  43 NW9       30.44S WCI  24
FORT BRIDGER   FAIR      39   9  28 W10       30.45F WCI  32
ROCK SPRINGS   FAIR      34  12  40 W10       30.42S WCI  26
DIXON          FAIR      28  19  70 CALM      30.47S
RAWLINS        FAIR      39  12  33 CALM      30.39S
SARATOGA       FAIR      32  18  55 SE8       30.41S WCI  25
LARAMIE        FAIR      40  10  29 SW7       30.37F
CHEYENNE       FAIR      39  17  41 CALM      30.32F
TORRINGTON     FAIR      29  23  78 CALM      30.25S
PINE BLUFFS    FAIR      32  23  69 MISG      30.31F

$$




USA.gov is the U.S. government's official web portal to all federal, state and local government web resources and services.